Preview of NWS' New Version of Forecast
This preview is not operational and should not be used for support decisions.

Regional Weather Roundup (RWR)

Issued by National Weather Service (NWS)

                            
000
ASUS43 KLSX 220157
RWRMO 

WEATHER SUMMARY FOR MISSOURI
NATIONAL WEATHER SERVICE SPRINGFIELD MO
800 PM CST THU FEB 21 2019

NOTE: "FAIR" INDICATES FEW OR NO CLOUDS BELOW 12,000 FEET WITH NO
       SIGNIFICANT WEATHER AND/OR OBSTRUCTIONS TO VISIBILITY.
       CURRENT SKY AND/OR WEATHER CONDITIONS ARE NOT AVAILABLE FOR
       CHILLICOTHE AND FARMINGTON.

MOZ001>031-035>038-043-044-053-054-220300-
...NORTHERN AND WESTERN MISSOURI...
  
CITY           SKY/WX    TMP DP  RH WIND       PRES   REMARKS
KANSAS CTY INT PTCLDY    33  23  66 E9        30.18R WCI  25          
LEE'S SUMMIT   MOCLDY    33  25  72 MISG      30.17S                  
ST JOSEPH      CLEAR     32  20  61 E6        30.21R WCI  26          
CHILLICOTHE      N/A     34  24  67 NE3       30.25S                  
     
$$
MOZ066>068-077>081-088>096-101>105-220300-
...SOUTHWEST MISSOURI...
  
CITY           SKY/WX    TMP DP  RH WIND       PRES   REMARKS
SPRINGFIELD    PTCLDY    41  25  53 E10       30.09F                  
JOPLIN         CLOUDY    41  25  53 SE6       30.09R                  
BRANSON        CLOUDY    39  27  60 E10       30.12R                  
               
$$
MOZ032>034-039>042-045>050-055>058-069>072-220300-
...CENTRAL MISSOURI...  
  
CITY           SKY/WX    TMP DP  RH WIND       PRES   REMARKS
COLUMBIA       NOT AVBL                                               
JEFFERSON CITY CLOUDY    38  25  59 NE7       30.22F                  
ROLLA          CLOUDY    37  25  61 NE8       30.20R                  
SEDALIA        PTCLDY    33  25  72 E9        30.20S WCI  25          
WARRENSBURG    MOCLDY    32  27  80 NE7       30.19S WCI  26          
               
$$
MOZ051-052-059>065-220300-
...EAST CENTRAL MISSOURI...
  
CITY           SKY/WX    TMP DP  RH WIND       PRES   REMARKS
ST LOUIS INTL  CLOUDY    37  26  64 E10       30.26S WCI  30          
                   
$$
MOZ072>076-082>087-097>100-106>115-220300-
...SOUTH CENTRAL AND SOUTHEAST MISSOURI...
  
CITY           SKY/WX    TMP DP  RH WIND       PRES   REMARKS
CAPE GIRARDEAU CLOUDY    42  30  62 E8        30.22F                  
POPLAR BLUFF   FAIR      42  36  79 E6        30.21F                  
WEST PLAINS    PTCLDY    43  25  49 CALM      30.18S                  
                                       
$$